Retour au catalogue

LEMUR-2 EMARCHIA

ActifScienceSSO
NORAD 68492·PAYLOAD·🇩🇪 Germany

Lancé Mar 30, 2026 depuis Vandenberg Space Force Base

Loading…

Prochains Passages (prochaines 24 heures)

TLE

FraisSource: Space-Track

Époque: Sep 14, 2026, 20:48 UTC

1 68492U 26067CE  26257.86670854  .00004188  00000-0  41372-3 0  9997
2 68492  97.7651 214.6915 0004882 104.8963 255.2797 14.92461677 25097

Suivez LEMUR-2 EMARCHIA en temps réel avec AllMySat

Download on the App Store